Home > Weather > Gera > Past weeks

Flag for Germany Past Weather in Gera, Thuringia, Germany — Yesterday and Last 2 Weeks

Now
81 °F

Sunny.


Feels Like: 81 °F
Forecast: 55 / 74 °F
Wind: 13 mph from Southwest

Location: Altenburg Nobitz

Current Time: Jul 1, 2016 at 5:28:39 PM

Latest Report: Jul 1, 2016 at 4:50 PM


Visibility: 10 mi

Pressure: 29.98 "Hg

Humidity: 42%

Dew Point: 55 °F

Location of GeraLocation

Past Weather in Gera — Graph

°F

Gera Temperature Yesterday

High & Low Weather Summary for the Past Weeks

 TemperatureHumidityPressure
High93 °F (Jun 24, 2:50 PM)100% (Jun 17, 7:50 AM)30.21 "Hg (Jun 17, 7:50 AM)
Low57 °F (Jun 17, 7:50 AM)30% (Jun 24, 4:20 PM)29.56 "Hg (Jun 17, 7:50 AM)
Average71 °F59%30.01 "Hg
* Reported Jun 16 3:20 PM — Jul 1 3:50 PM, Gera, Weather by CustomWeather, © 2016

Note: Actual official high and low records may vary slightly from our data, if they occured in-between our weather recording intervals... More about our weather records

Advertising

Gera Weather History for the Previous 24 Hours

Scroll right to see more
 ConditionsComfort  
Time TempWeatherWind HumidityBarometerVisibility
3:50 PM
Fri, Jul 1
81 °FSunny.14 mph42%29.98 "Hg10 mi
3:20 PM82 °FPassing clouds.13 mph40%29.98 "HgN/A
2:50 PM82 °FSunny.10 mph45%29.98 "Hg10 mi
2:20 PM81 °FScattered clouds.12 mph42%29.98 "HgN/A
1:50 PM81 °FScattered clouds.9 mph45%30.01 "HgN/A
1:20 PM79 °FScattered clouds.9 mph51%30.01 "HgN/A
12:50 PM77 °FScattered clouds.14 mph51%30.01 "HgN/A
12:20 PM75 °FScattered clouds.12 mph57%30.01 "HgN/A
11:50 AM75 °FScattered clouds.13 mph54%30.01 "HgN/A
11:20 AM77 °FPassing clouds.15 mph54%30.01 "HgN/A
10:50 AM75 °FPassing clouds.16 mph57%30.01 "HgN/A
10:20 AM73 °FPassing clouds.14 mph57%30.01 "HgN/A
9:50 AM73 °FPassing clouds.12 mph65%30.04 "HgN/A
9:20 AM72 °FSunny.10 mph73%30.04 "Hg10 mi
8:50 AM72 °FPassing clouds.8 mph78%30.04 "HgN/A
8:20 AM70 °FPassing clouds.8 mph83%30.04 "HgN/A
7:50 AM66 °FSunny.8 mph94%30.01 "Hg10 mi
Weather by CustomWeather, © 2016

See weather overviewHow to use our weather pages